Ketchikan, AK

4:22 PM AKST on February 20, 2019 (GMT -0900)
Ketchikan International

Weather History for PAKT - January, 2019

Change the Weather History Date:

Friday, January 18, 2019

  Actual Average Record
Temperature  
Mean Temperature 40 °F -  
Max Temperature 44 °F 40 °F 56 °F (1965)
Min Temperature 35 °F 29 °F 1 °F (2012)
Degree Days  
Heating Degree Days 26    
Moisture  
Dew Point 36 °F    
Average Humidity 86    
Maximum Humidity 100    
Minimum Humidity 73    
Precipitation  
Precipitation 0.04 in - - ()
Sea Level Pressure  
Sea Level Pressure 29.50 in    
Wind  
Wind Speed 7 mph (South)    
Max Wind Speed 17 mph    
Max Gust Speed 25 mph    
Visibility 8 miles    
Events Rain    
Averages and records for this station are not official NWS values.
T = Trace of Precipitation, MM = Missing Value Source: NWS Daily Summary

Daily Weather History Graph

Daily Weather History Graph

Search for Another Location

Airport or City:

Astronomy

Jan. 18, 2019 Rise Set
Actual Time 8:00 AM AKST 3:54 PM AKST
Civil Twilight 7:17 AM AKST 4:37 PM AKST
Nautical Twilight 6:31 AM AKST 5:23 PM AKST
Astronomical Twilight 5:48 AM AKST 6:06 PM AKST
Moon 1:29 PM AKST (1/18) 5:30 AM AKST (1/18)
Length of Visible Light 9h 19m
Length of Day
7h 53m
Waxing Gibbous, 92% of the Moon is Illuminated
Jan 18
Waxing Gibbous
Jan 20
Full
Jan 27
Last Quarter
Feb 4
New
Feb 12
First Quarter

Hourly Weather History & Observations

Time (AKST) Temp. Windchill Dew Point Humidity Pressure Visibility Wind Dir Wind Speed Gust Speed Precip Events Conditions
12:53 AM 37.9 °F 30.9 °F 32.0 °F 79% 29.48 in 10.0 mi NNW 10.4 mph - N/A   Overcast
1:53 AM 39.0 °F 31.8 °F 30.9 °F 73% 29.50 in 10.0 mi NNW 11.5 mph - N/A   Overcast
2:53 AM 37.0 °F 32.4 °F 30.9 °F 79% 29.52 in 10.0 mi NW 5.8 mph - N/A   Overcast
3:53 AM 37.0 °F 33.3 °F 30.9 °F 79% 29.52 in 10.0 mi WNW 4.6 mph - N/A   Overcast
4:53 AM 37.0 °F 32.4 °F 30.9 °F 79% 29.53 in 10.0 mi WNW 5.8 mph - N/A   Overcast
5:53 AM 37.0 °F 34.5 °F 32.0 °F 82% 29.54 in 10.0 mi Variable 3.5 mph - 0.00 in Rain Light Rain
6:01 AM 37.4 °F 34.9 °F 32.0 °F 81% 29.53 in 10.0 mi SSE 3.5 mph - N/A Rain Light Rain
6:53 AM 36.0 °F - 34.0 °F 93% 29.54 in 9.0 mi Calm Calm - 0.01 in Rain Light Rain
7:53 AM 35.6 °F - 33.8 °F 93% 29.53 in 10.0 mi Calm Calm - N/A Rain Light Rain
8:53 AM 37.0 °F 34.5 °F 36.0 °F 96% 29.52 in 5.0 mi WNW 3.5 mph - 0.03 in Rain Light Rain
9:53 AM 37.4 °F - 37.4 °F 100% 29.53 in 4.0 mi Calm Calm - N/A Rain Light Rain
10:53 AM 41.0 °F 35.8 °F 37.4 °F 87% 29.54 in 6.0 mi South 8.1 mph 19.6 mph N/A Rain Light Rain
11:53 AM 41.0 °F 35.2 °F 37.4 °F 87% 29.54 in 5.0 mi SSE 9.2 mph 19.6 mph N/A Rain Light Rain
12:53 PM 41.0 °F 34.3 °F 37.4 °F 87% 29.55 in 5.0 mi SSE 11.5 mph - N/A Rain Light Rain
1:53 PM 41.0 °F 36.4 °F 39.2 °F 93% 29.55 in 5.0 mi South 6.9 mph - N/A Rain Light Rain
2:53 PM 42.8 °F 36.2 °F 37.4 °F 81% 29.55 in 4.0 mi SSE 12.7 mph 20.7 mph N/A Rain Rain
3:53 PM 41.0 °F 35.2 °F 39.2 °F 93% 29.55 in 5.0 mi South 9.2 mph - N/A Rain Heavy Rain
4:53 PM 42.8 °F 36.6 °F 41.0 °F 93% 29.54 in 5.0 mi SSE 11.5 mph - N/A Rain Light Rain
5:53 PM 42.8 °F 34.8 °F 39.2 °F 87% 29.52 in 10.0 mi SE 17.3 mph 25.3 mph N/A   Overcast
6:53 PM 44.6 °F 37.4 °F 37.4 °F 76% 29.49 in 10.0 mi SE 16.1 mph 24.2 mph N/A   Overcast
7:53 PM 42.8 °F 39.3 °F 37.4 °F 81% 29.47 in 10.0 mi Variable 5.8 mph - N/A   Overcast
8:53 PM 43.0 °F 41.3 °F 37.0 °F 80% 29.42 in 10.0 mi Variable 3.5 mph - N/A   Overcast
9:53 PM 39.9 °F - 37.9 °F 93% 29.37 in 10.0 mi Calm Calm - N/A   Clear
10:53 PM 41.0 °F - 37.0 °F 86% 29.32 in 10.0 mi Calm Calm - N/A   Scattered Clouds
11:53 PM 39.9 °F - 36.0 °F 86% 29.27 in 10.0 mi Calm Calm - N/A   Scattered Clouds